Weather History for Lander, WY

Change the Weather History Date:

Friday, March 29, 2013

  Actual Average Record
Temperature  
Mean Temperature 52 °F 39 °F  
Max Temperature 65 °F 52 °F 72 °F (1943)
Min Temperature 38 °F 27 °F -4 °F (1987)
Degree Days  
Heating Degree Days 13 26  
Month to date heating degree days 850 865  
Since 1 July heating degree days 6219 6569  
Cooling Degree Days 0 0  
Month to date cooling degree days 0 0  
Year to date cooling degree days 0 0  
Growing Degree Days 1 (Base 50)    
Moisture  
Dew Point 25 °F    
Average Humidity 39    
Maximum Humidity 59    
Minimum Humidity 19    
Precipitation  
Precipitation 0.00 in 0.05 in 0.99 in (1998)
Month to date precipitation 0.42 1.06  
Year to date precipitation 2.40 2.05  
Snow  
Snow 0.00 in 0.60 in - ()
Month to date snowfall 5.1 14.9  
Since 1 July snowfall 57.3 68.5  
Snow Depth 0.00 in    
Sea Level Pressure  
Sea Level Pressure 30.00 in    
Wind  
Wind Speed 6 mph (West)    
Max Wind Speed 25 mph    
Max Gust Speed 32 mph    
Visibility 10 miles    
Events      
T = Trace of Precipitation, MM = Missing Value Source: NWS Daily Summary

Daily Weather History Graph

Daily Weather History Graph

Search for Another Location

Airport:

Trip Planner

Search our weather history database for the weather conditions in past years. The results will help you decide how hot, cold, wet, or windy it might be!

Date:

Astronomy

Mar. 29, 2013 Rise Set
Actual Time 7:01 AM MDT 7:38 PM MDT
Civil Twilight 6:33 AM MDT 8:06 PM MDT
Nautical Twilight 5:59 AM MDT 8:40 PM MDT
Astronomical Twilight 5:25 AM MDT 9:15 PM MDT
Moon 10:46 PM MDT (3/29) 8:08 AM MDT (3/29)
Length of Visible Light 13h 33m
Length of Day
12h 36m
Waning Gibbous, 93% of the Moon is Illuminated
Mar 29
Waning Gibbous
Apr 2
Last Quarter
Apr 10
New
Apr 18
First Quarter
Apr 25
Full

Hourly Weather History & Observations

Time (MDT) Temp. Windchill Dew Point Humidity Pressure Visibility Wind Dir Wind Speed Gust Speed Precip Events Conditions
12:53 AM 50.0 °F - 25.0 °F 38% 29.95 in 10.0 mi Calm Calm - N/A   Mostly Cloudy
1:53 AM 46.9 °F - 27.0 °F 46% 29.95 in 10.0 mi West 6.9 mph - N/A   Overcast
2:53 AM 46.0 °F 44.8 °F 25.0 °F 44% 29.96 in 10.0 mi North 3.5 mph - N/A   Mostly Cloudy
3:53 AM 45.0 °F 43.5 °F 25.0 °F 46% 29.96 in 10.0 mi ESE 3.5 mph - N/A   Clear
4:53 AM 43.0 °F - 25.0 °F 49% 29.98 in 10.0 mi Calm Calm - N/A   Partly Cloudy
5:53 AM 42.1 °F - 27.0 °F 55% 29.99 in 10.0 mi Calm Calm - N/A   Clear
6:53 AM 39.0 °F - 27.0 °F 62% 30.04 in 10.0 mi Calm Calm - N/A   Clear
7:53 AM 39.0 °F - 27.0 °F 62% 30.06 in 10.0 mi Calm Calm - N/A   Clear
8:53 AM 43.0 °F - 28.0 °F 56% 30.06 in 10.0 mi Calm Calm - N/A   Clear
9:53 AM 51.1 °F - 27.0 °F 39% 30.02 in 10.0 mi Calm Calm - N/A   Clear
10:53 AM 57.0 °F - 27.0 °F 32% 30.00 in 10.0 mi ESE 6.9 mph - N/A   Clear
11:53 AM 59.0 °F - 26.1 °F 28% 29.99 in 10.0 mi Variable 4.6 mph - N/A   Partly Cloudy
12:53 PM 60.1 °F - 25.0 °F 26% 29.97 in 10.0 mi Variable 3.5 mph - N/A   Clear
1:53 PM 61.0 °F - 24.1 °F 24% 29.95 in 10.0 mi Variable 3.5 mph - N/A   Partly Cloudy
2:53 PM 62.1 °F - 21.9 °F 21% 29.94 in 10.0 mi WNW 15.0 mph 21.9 mph N/A   Partly Cloudy
3:53 PM 63.0 °F - 19.9 °F 19% 29.93 in 10.0 mi West 16.1 mph 25.3 mph N/A   Clear
4:53 PM 60.1 °F - 21.9 °F 23% 29.96 in 10.0 mi WNW 24.2 mph 32.2 mph N/A   Partly Cloudy
5:53 PM 59.0 °F - 24.1 °F 26% 29.97 in 10.0 mi West 15.0 mph - N/A   Overcast
6:53 PM 55.9 °F - 21.9 °F 27% 30.01 in 10.0 mi WNW 9.2 mph - N/A   Clear
7:53 PM 50.0 °F - 23.0 °F 35% 30.04 in 10.0 mi SW 5.8 mph - N/A   Partly Cloudy
8:53 PM 50.0 °F - 23.0 °F 35% 30.04 in 10.0 mi West 6.9 mph - N/A   Clear
9:53 PM 48.0 °F - 24.1 °F 39% 30.04 in 10.0 mi SSW 8.1 mph - N/A   Clear
10:53 PM 44.1 °F 40.8 °F 25.0 °F 47% 30.04 in 10.0 mi NW 5.8 mph - N/A   Clear
11:53 PM 44.1 °F 42.5 °F 24.1 °F 45% 30.04 in 10.0 mi WSW 3.5 mph - N/A   Clear